Year,Month,Day,Hour,Minute,Value (Times are PST for windgust in km/hr)
2012,12,05,00,00,20.90
2012,12,05,00,01,17.70
2012,12,05,00,02,14.50
2012,12,05,00,03,16.10
2012,12,05,00,04,9.60
2012,12,05,00,05,11.30
2012,12,05,00,06,9.60
2012,12,05,00,07,14.50
2012,12,05,00,08,17.70
2012,12,05,00,09,20.90
2012,12,05,00,10,16.10
2012,12,05,00,11,12.90
2012,12,05,00,12,8.10
2012,12,05,00,13,9.60
2012,12,05,00,14,14.50
2012,12,05,00,15,9.60
2012,12,05,00,16,16.10
2012,12,05,00,17,9.60
2012,12,05,00,18,11.30
2012,12,05,00,19,11.30
2012,12,05,00,20,19.30
2012,12,05,00,21,20.90
2012,12,05,00,22,24.20
2012,12,05,00,23,16.10
2012,12,05,00,24,16.10
2012,12,05,00,25,20.90
2012,12,05,00,26,25.70
2012,12,05,00,27,27.40
2012,12,05,00,28,22.50
2012,12,05,00,29,22.50
2012,12,05,00,30,37.00
2012,12,05,00,31,43.50
2012,12,05,00,32,27.40
2012,12,05,00,33,22.50
2012,12,05,00,34,20.90
2012,12,05,00,35,29.00
2012,12,05,00,36,27.40
2012,12,05,00,37,16.10
2012,12,05,00,38,17.70
2012,12,05,00,39,17.70
2012,12,05,00,40,22.50
2012,12,05,00,41,20.90
2012,12,05,00,42,20.90
2012,12,05,00,43,22.50
2012,12,05,00,44,25.70
2012,12,05,00,45,19.30
2012,12,05,00,46,11.30
2012,12,05,00,47,22.50
2012,12,05,00,48,16.10
2012,12,05,00,49,22.50
2012,12,05,00,50,19.30
2012,12,05,00,51,27.40
2012,12,05,00,52,17.70
2012,12,05,00,53,16.10
2012,12,05,00,54,25.70
2012,12,05,00,55,19.30
2012,12,05,00,56,20.90
2012,12,05,00,57,17.70
2012,12,05,00,58,20.90
2012,12,05,00,59,16.10
2012,12,05,01,00,20.90
2012,12,05,01,01,12.90
2012,12,05,01,02,19.30
2012,12,05,01,03,19.30
2012,12,05,01,04,19.30
2012,12,05,01,05,27.40
2012,12,05,01,06,30.60
2012,12,05,01,07,32.20
2012,12,05,01,08,24.20
2012,12,05,01,09,19.30
2012,12,05,01,10,35.40
2012,12,05,01,11,30.60
2012,12,05,01,12,27.40
2012,12,05,01,13,19.30
2012,12,05,01,14,16.10
2012,12,05,01,15,16.10
2012,12,05,01,16,19.30
2012,12,05,01,17,19.30
2012,12,05,01,18,14.50
2012,12,05,01,19,16.10
2012,12,05,01,20,30.60
2012,12,05,01,21,17.70
2012,12,05,01,22,17.70
2012,12,05,01,23,11.30
2012,12,05,01,24,11.30
2012,12,05,01,25,16.10
2012,12,05,01,26,11.30
2012,12,05,01,27,22.50
2012,12,05,01,28,14.50
2012,12,05,01,29,19.30
2012,12,05,01,30,27.40
2012,12,05,01,31,25.70
2012,12,05,01,32,19.30
2012,12,05,01,33,17.70
2012,12,05,01,34,29.00
2012,12,05,01,35,27.40
2012,12,05,01,36,20.90
2012,12,05,01,37,17.70
2012,12,05,01,38,17.70
2012,12,05,01,39,14.50
2012,12,05,01,40,25.70
2012,12,05,01,41,16.10
2012,12,05,01,42,22.50
2012,12,05,01,43,19.30
2012,12,05,01,44,17.70
2012,12,05,01,45,14.50
2012,12,05,01,46,16.10
2012,12,05,01,47,12.90
2012,12,05,01,48,14.50
2012,12,05,01,49,24.20
2012,12,05,01,50,19.30
2012,12,05,01,51,16.10
2012,12,05,01,52,11.30
2012,12,05,01,53,11.30
2012,12,05,01,54,16.10
2012,12,05,01,55,14.50
2012,12,05,01,56,19.30
2012,12,05,01,57,16.10
2012,12,05,01,58,16.10
2012,12,05,01,59,11.30
2012,12,05,02,00,6.40
2012,12,05,02,01,6.40
2012,12,05,02,02,11.30
2012,12,05,02,03,14.50
2012,12,05,02,04,17.70
2012,12,05,02,05,11.30
2012,12,05,02,06,14.50
2012,12,05,02,07,16.10
2012,12,05,02,08,16.10
2012,12,05,02,09,14.50
2012,12,05,02,10,8.10
2012,12,05,02,11,19.30
2012,12,05,02,12,14.50
2012,12,05,02,13,9.60
2012,12,05,02,14,19.30
2012,12,05,02,15,16.10
2012,12,05,02,16,17.70
2012,12,05,02,17,24.20
2012,12,05,02,18,17.70
2012,12,05,02,19,16.10
2012,12,05,02,20,19.30
2012,12,05,02,21,22.50
2012,12,05,02,22,22.50
2012,12,05,02,23,17.70
2012,12,05,02,24,20.90
2012,12,05,02,25,25.70
2012,12,05,02,26,17.70
2012,12,05,02,27,11.30
2012,12,05,02,28,16.10
2012,12,05,02,29,17.70
2012,12,05,02,30,19.30
2012,12,05,02,31,9.60
2012,12,05,02,32,14.50
2012,12,05,02,33,17.70
2012,12,05,02,34,22.50
2012,12,05,02,35,11.30
2012,12,05,02,36,9.60
2012,12,05,02,37,11.30
2012,12,05,02,38,12.90
2012,12,05,02,39,16.10
2012,12,05,02,40,24.20
2012,12,05,02,41,11.30
2012,12,05,02,42,17.70
2012,12,05,02,43,20.90
2012,12,05,02,44,19.30
2012,12,05,02,45,11.30
2012,12,05,02,46,19.30
2012,12,05,02,47,19.30
2012,12,05,02,48,19.30
2012,12,05,02,49,16.10
2012,12,05,02,50,16.10
2012,12,05,02,51,14.50
2012,12,05,02,52,9.60
2012,12,05,02,53,14.50
2012,12,05,02,54,17.70
2012,12,05,02,55,11.30
2012,12,05,02,56,11.30
2012,12,05,02,57,19.30
2012,12,05,02,58,14.50
2012,12,05,02,59,17.70
2012,12,05,03,00,14.50
2012,12,05,03,01,25.70
2012,12,05,03,02,14.50
2012,12,05,03,03,19.30
2012,12,05,03,04,19.30
2012,12,05,03,05,19.30
2012,12,05,03,06,9.60
2012,12,05,03,07,9.60
2012,12,05,03,08,17.70
2012,12,05,03,09,20.90
2012,12,05,03,10,16.10
2012,12,05,03,11,14.50
2012,12,05,03,12,27.40
2012,12,05,03,13,27.40
2012,12,05,03,14,24.20
2012,12,05,03,15,17.70
2012,12,05,03,16,19.30
2012,12,05,03,17,19.30
2012,12,05,03,18,14.50
2012,12,05,03,19,19.30
2012,12,05,03,20,25.70
2012,12,05,03,21,19.30
2012,12,05,03,22,19.30
2012,12,05,03,23,20.90
2012,12,05,03,24,22.50
2012,12,05,03,25,11.30
2012,12,05,03,26,27.40
2012,12,05,03,27,24.20
2012,12,05,03,28,20.90
2012,12,05,03,29,16.10
2012,12,05,03,30,20.90
2012,12,05,03,31,25.70
2012,12,05,03,32,20.90
2012,12,05,03,33,24.20
2012,12,05,03,34,17.70
2012,12,05,03,35,14.50
2012,12,05,03,36,20.90
2012,12,05,03,37,16.10
2012,12,05,03,38,14.50
2012,12,05,03,39,20.90
2012,12,05,03,40,19.30
2012,12,05,03,41,11.30
2012,12,05,03,42,19.30
2012,12,05,03,43,17.70
2012,12,05,03,44,12.90
2012,12,05,03,45,14.50
2012,12,05,03,46,14.50
2012,12,05,03,47,24.20
2012,12,05,03,48,20.90
2012,12,05,03,49,11.30
2012,12,05,03,50,16.10
2012,12,05,03,51,25.70
2012,12,05,03,52,11.30
2012,12,05,03,53,16.10
2012,12,05,03,54,25.70
2012,12,05,03,55,17.70
2012,12,05,03,56,22.50
2012,12,05,03,57,9.60
2012,12,05,03,58,14.50
2012,12,05,03,59,24.20
2012,12,05,04,00,14.50
2012,12,05,04,01,8.10
2012,12,05,04,02,19.30
2012,12,05,04,03,9.60
2012,12,05,04,04,14.50
2012,12,05,04,05,22.50
2012,12,05,04,06,11.30
2012,12,05,04,07,17.70
2012,12,05,04,08,19.30
2012,12,05,04,09,20.90
2012,12,05,04,10,19.30
2012,12,05,04,11,22.50
2012,12,05,04,12,17.70
2012,12,05,04,13,24.20
2012,12,05,04,14,17.70
2012,12,05,04,15,8.10
2012,12,05,04,16,19.30
2012,12,05,04,17,16.10
2012,12,05,04,18,9.60
2012,12,05,04,19,14.50
2012,12,05,04,20,19.30
2012,12,05,04,21,11.30
2012,12,05,04,22,8.10
2012,12,05,04,23,17.70
2012,12,05,04,24,19.30
2012,12,05,04,25,11.30
2012,12,05,04,26,11.30
2012,12,05,04,27,19.30
2012,12,05,04,28,24.20
2012,12,05,04,29,16.10
2012,12,05,04,30,22.50
2012,12,05,04,31,20.90
2012,12,05,04,32,17.70
2012,12,05,04,33,17.70
2012,12,05,04,34,16.10
2012,12,05,04,35,14.50
2012,12,05,04,36,17.70
2012,12,05,04,37,20.90
2012,12,05,04,38,25.70
2012,12,05,04,39,27.40
2012,12,05,04,40,24.20
2012,12,05,04,41,16.10
2012,12,05,04,42,11.30
2012,12,05,04,43,11.30
2012,12,05,04,44,25.70
2012,12,05,04,45,22.50
2012,12,05,04,46,17.70
2012,12,05,04,47,16.10
2012,12,05,04,48,24.20
2012,12,05,04,49,12.90
2012,12,05,04,50,14.50
2012,12,05,04,51,22.50
2012,12,05,04,52,20.90
2012,12,05,04,53,11.30
2012,12,05,04,54,9.60
2012,12,05,04,55,14.50
2012,12,05,04,56,17.70
2012,12,05,04,57,9.60
2012,12,05,04,58,8.10
2012,12,05,04,59,8.10
2012,12,05,05,00,4.80
2012,12,05,05,01,14.50
2012,12,05,05,02,12.90
2012,12,05,05,03,16.10
2012,12,05,05,04,9.60
2012,12,05,05,05,11.30
2012,12,05,05,06,16.10
2012,12,05,05,07,9.60
2012,12,05,05,08,9.60
2012,12,05,05,09,20.90
2012,12,05,05,10,11.30
2012,12,05,05,11,19.30
2012,12,05,05,12,14.50
2012,12,05,05,13,16.10
2012,12,05,05,14,6.40
2012,12,05,05,15,4.80
2012,12,05,05,16,8.10
2012,12,05,05,17,22.50
2012,12,05,05,18,8.10
2012,12,05,05,19,14.50
2012,12,05,05,20,14.50
2012,12,05,05,21,19.30
2012,12,05,05,22,14.50
2012,12,05,05,23,25.70
2012,12,05,05,24,12.90
2012,12,05,05,25,16.10
2012,12,05,05,26,17.70
2012,12,05,05,27,14.50
2012,12,05,05,28,9.60
2012,12,05,05,29,16.10
2012,12,05,05,30,8.10
2012,12,05,05,31,11.30
2012,12,05,05,32,11.30
2012,12,05,05,33,9.60
2012,12,05,05,34,16.10
2012,12,05,05,35,11.30
2012,12,05,05,36,11.30
2012,12,05,05,37,6.40
2012,12,05,05,38,9.60
2012,12,05,05,39,8.10
2012,12,05,05,40,8.10
2012,12,05,05,41,9.60
2012,12,05,05,42,9.60
2012,12,05,05,43,6.40
2012,12,05,05,44,14.50
2012,12,05,05,45,17.70
2012,12,05,05,46,8.10
2012,12,05,05,47,8.10
2012,12,05,05,48,11.30
2012,12,05,05,49,11.30
2012,12,05,05,50,6.40
2012,12,05,05,51,16.10
2012,12,05,05,52,11.30
2012,12,05,05,53,6.40
2012,12,05,05,54,14.50
2012,12,05,05,55,6.40
2012,12,05,05,56,8.10
2012,12,05,05,57,8.10
2012,12,05,05,58,8.10
2012,12,05,05,59,11.30
2012,12,05,06,00,4.80
2012,12,05,06,01,12.90
2012,12,05,06,02,6.40
2012,12,05,06,03,12.90
2012,12,05,06,04,11.30
2012,12,05,06,05,8.10
2012,12,05,06,06,9.60
2012,12,05,06,07,9.60
2012,12,05,06,08,6.40
2012,12,05,06,09,8.10
2012,12,05,06,10,12.90
2012,12,05,06,11,8.10
2012,12,05,06,12,14.50
2012,12,05,06,13,8.10
2012,12,05,06,14,11.30
2012,12,05,06,15,8.10
2012,12,05,06,16,9.60
2012,12,05,06,17,11.30
2012,12,05,06,18,16.10
2012,12,05,06,19,11.30
2012,12,05,06,20,16.10
2012,12,05,06,21,29.00
2012,12,05,06,22,22.50
2012,12,05,06,23,24.20
2012,12,05,06,24,20.90
2012,12,05,06,25,14.50
2012,12,05,06,26,9.60
2012,12,05,06,27,16.10
2012,12,05,06,28,9.60
2012,12,05,06,29,4.80
2012,12,05,06,30,3.20
2012,12,05,06,31,4.80
2012,12,05,06,32,6.40
2012,12,05,06,33,4.80
2012,12,05,06,34,6.40
2012,12,05,06,35,3.20
2012,12,05,06,36,3.20
2012,12,05,06,37,4.80
2012,12,05,06,38,4.80
2012,12,05,06,39,8.10
2012,12,05,06,40,6.40
2012,12,05,06,41,3.20
2012,12,05,06,42,6.40
2012,12,05,06,43,4.80
2012,12,05,06,44,4.80
2012,12,05,06,45,4.80
2012,12,05,06,46,6.40
2012,12,05,06,47,6.40
2012,12,05,06,48,4.80
2012,12,05,06,49,8.10
2012,12,05,06,50,8.10
2012,12,05,06,51,6.40
2012,12,05,06,52,6.40
2012,12,05,06,53,9.60
2012,12,05,06,54,8.10
2012,12,05,06,55,6.40
2012,12,05,06,56,4.80
2012,12,05,06,57,6.40
2012,12,05,06,58,9.60
2012,12,05,06,59,4.80
2012,12,05,07,00,6.40
2012,12,05,07,01,6.40
2012,12,05,07,02,4.80
2012,12,05,07,03,4.80
2012,12,05,07,04,9.60
2012,12,05,07,05,8.10
2012,12,05,07,06,6.40
2012,12,05,07,07,8.10
2012,12,05,07,08,8.10
2012,12,05,07,09,9.60
2012,12,05,07,10,9.60
2012,12,05,07,11,9.60
2012,12,05,07,12,11.30
2012,12,05,07,13,14.50
2012,12,05,07,14,9.60
2012,12,05,07,15,8.10
2012,12,05,07,16,8.10
2012,12,05,07,17,4.80
2012,12,05,07,18,9.60
2012,12,05,07,19,8.10
2012,12,05,07,20,6.40
2012,12,05,07,21,8.10
2012,12,05,07,22,4.80
2012,12,05,07,23,4.80
2012,12,05,07,24,3.20
2012,12,05,07,25,3.20
2012,12,05,07,26,4.80
2012,12,05,07,27,3.20
2012,12,05,07,28,3.20
2012,12,05,07,29,6.40
2012,12,05,07,30,6.40
2012,12,05,07,31,6.40
2012,12,05,07,32,6.40
2012,12,05,07,33,4.80
2012,12,05,07,34,4.80
2012,12,05,07,35,4.80
2012,12,05,07,36,6.40
2012,12,05,07,37,4.80
2012,12,05,07,38,4.80
2012,12,05,07,39,6.40
2012,12,05,07,40,6.40
2012,12,05,07,41,8.10
2012,12,05,07,42,6.40
2012,12,05,07,43,4.80
2012,12,05,07,44,3.20
2012,12,05,07,45,3.20
2012,12,05,07,46,4.80
2012,12,05,07,47,3.20
2012,12,05,07,48,4.80
2012,12,05,07,49,3.20
2012,12,05,07,50,6.40
2012,12,05,07,51,4.80
2012,12,05,07,52,3.20
2012,12,05,07,53,4.80
2012,12,05,07,54,9.60
2012,12,05,07,55,4.80
2012,12,05,07,56,4.80
2012,12,05,07,57,4.80
2012,12,05,07,58,4.80
2012,12,05,07,59,11.30
2012,12,05,08,00,11.30
2012,12,05,08,01,8.10
2012,12,05,08,02,8.10
2012,12,05,08,03,11.30
2012,12,05,08,04,9.60
2012,12,05,08,05,8.10
2012,12,05,08,06,6.40
2012,12,05,08,07,8.10
2012,12,05,08,08,4.80
2012,12,05,08,09,4.80
2012,12,05,08,10,8.10
2012,12,05,08,11,6.40
2012,12,05,08,12,3.20
2012,12,05,08,13,4.80
2012,12,05,08,14,4.80
2012,12,05,08,15,4.80
2012,12,05,08,16,6.40
2012,12,05,08,17,6.40
2012,12,05,08,18,6.40
2012,12,05,08,19,4.80
2012,12,05,08,20,6.40
2012,12,05,08,21,3.20
2012,12,05,08,22,6.40
2012,12,05,08,23,6.40
2012,12,05,08,24,6.40
2012,12,05,08,25,6.40
2012,12,05,08,26,3.20
2012,12,05,08,27,3.20
2012,12,05,08,29,1.60
2012,12,05,08,30,4.80
2012,12,05,08,31,4.80
2012,12,05,08,32,3.20
2012,12,05,08,33,3.20
2012,12,05,08,34,4.80
2012,12,05,08,35,3.20
2012,12,05,08,36,3.20
2012,12,05,08,37,1.60
2012,12,05,08,38,3.20
2012,12,05,08,39,4.80
2012,12,05,08,40,6.40
2012,12,05,08,41,4.80
2012,12,05,08,42,8.10
2012,12,05,08,43,4.80
2012,12,05,08,44,4.80
2012,12,05,08,45,4.80
2012,12,05,08,46,3.20
2012,12,05,08,47,4.80
2012,12,05,08,48,4.80
2012,12,05,08,49,11.30
2012,12,05,08,50,9.60
2012,12,05,08,51,3.20
2012,12,05,08,52,4.80
2012,12,05,08,53,8.10
2012,12,05,08,54,8.10
2012,12,05,08,55,6.40
2012,12,05,08,56,6.40
2012,12,05,08,57,6.40
2012,12,05,08,58,4.80
2012,12,05,08,59,3.20
2012,12,05,09,00,4.80
2012,12,05,09,01,6.40
2012,12,05,09,02,4.80
2012,12,05,09,03,11.30
2012,12,05,09,04,8.10
2012,12,05,09,05,9.60
2012,12,05,09,06,4.80
2012,12,05,09,07,11.30
2012,12,05,09,08,9.60
2012,12,05,09,09,4.80
2012,12,05,09,10,4.80
2012,12,05,09,11,6.40
2012,12,05,09,12,3.20
2012,12,05,09,13,6.40
2012,12,05,09,14,8.10
2012,12,05,09,15,16.10
2012,12,05,09,16,9.60
2012,12,05,09,17,4.80
2012,12,05,09,18,6.40
2012,12,05,09,19,6.40
2012,12,05,09,20,8.10
2012,12,05,09,21,6.40
2012,12,05,09,22,6.40
2012,12,05,09,23,1.60
2012,12,05,09,24,3.20
2012,12,05,09,25,4.80
2012,12,05,09,26,16.10
2012,12,05,09,27,14.50
2012,12,05,09,28,14.50
2012,12,05,09,29,14.50
2012,12,05,09,30,8.10
2012,12,05,09,31,11.30
2012,12,05,09,32,14.50
2012,12,05,09,33,11.30
2012,12,05,09,34,3.20
2012,12,05,09,35,11.30
2012,12,05,09,36,4.80
2012,12,05,09,37,6.40
2012,12,05,09,38,9.60
2012,12,05,09,39,3.20
2012,12,05,09,40,3.20
2012,12,05,09,41,14.50
2012,12,05,09,42,9.60
2012,12,05,09,43,14.50
2012,12,05,09,44,6.40
2012,12,05,09,45,8.10
2012,12,05,09,46,11.30
2012,12,05,09,47,11.30
2012,12,05,09,48,8.10
2012,12,05,09,49,8.10
2012,12,05,09,50,8.10
2012,12,05,09,51,8.10
2012,12,05,09,52,1.60
2012,12,05,09,53,6.40
2012,12,05,09,54,4.80
2012,12,05,09,55,8.10
2012,12,05,09,56,8.10
2012,12,05,09,57,4.80
2012,12,05,09,58,4.80
2012,12,05,09,59,6.40
2012,12,05,10,00,9.60
2012,12,05,10,01,8.10
2012,12,05,10,02,4.80
2012,12,05,10,04,4.80
2012,12,05,10,05,11.30
2012,12,05,10,06,6.40
2012,12,05,10,07,4.80
2012,12,05,10,08,4.80
2012,12,05,10,09,3.20
2012,12,05,10,10,6.40
2012,12,05,10,11,11.30
2012,12,05,10,12,9.60
2012,12,05,10,13,4.80
2012,12,05,10,14,4.80
2012,12,05,10,15,9.60
2012,12,05,10,16,8.10
2012,12,05,10,17,9.60
2012,12,05,10,18,6.40
2012,12,05,10,19,14.50
2012,12,05,10,20,11.30
2012,12,05,10,21,11.30
2012,12,05,10,22,8.10
2012,12,05,10,23,6.40
2012,12,05,10,24,11.30
2012,12,05,10,25,8.10
2012,12,05,10,26,8.10
2012,12,05,10,27,8.10
2012,12,05,10,28,3.20
2012,12,05,10,29,3.20
2012,12,05,10,30,4.80
2012,12,05,10,31,3.20
2012,12,05,10,32,4.80
2012,12,05,10,33,12.90
2012,12,05,10,34,4.80
2012,12,05,10,35,8.10
2012,12,05,10,36,4.80
2012,12,05,10,37,4.80
2012,12,05,10,38,4.80
2012,12,05,10,39,4.80
2012,12,05,10,40,6.40
2012,12,05,10,41,6.40
2012,12,05,10,42,8.10
2012,12,05,10,43,9.60
2012,12,05,10,44,8.10
2012,12,05,10,45,16.10
2012,12,05,10,46,6.40
2012,12,05,10,47,6.40
2012,12,05,10,48,8.10
2012,12,05,10,49,6.40
2012,12,05,10,50,6.40
2012,12,05,10,51,11.30
2012,12,05,10,52,20.90
2012,12,05,10,53,24.20
2012,12,05,10,54,11.30
2012,12,05,10,55,9.60
2012,12,05,10,56,6.40
2012,12,05,10,57,9.60
2012,12,05,10,58,20.90
2012,12,05,10,59,11.30
2012,12,05,11,00,17.70
2012,12,05,11,01,11.30
2012,12,05,11,02,17.70
2012,12,05,11,03,14.50
2012,12,05,11,04,17.70
2012,12,05,11,05,8.10
2012,12,05,11,06,8.10
2012,12,05,11,07,8.10
2012,12,05,11,08,9.60
2012,12,05,11,09,11.30
2012,12,05,11,10,8.10
2012,12,05,11,11,6.40
2012,12,05,11,12,4.80
2012,12,05,11,13,9.60
2012,12,05,11,14,11.30
2012,12,05,11,15,6.40
2012,12,05,11,16,9.60
2012,12,05,11,17,9.60
2012,12,05,11,18,3.20
2012,12,05,11,19,4.80
2012,12,05,11,20,8.10
2012,12,05,11,21,6.40
2012,12,05,11,22,4.80
2012,12,05,11,23,8.10
2012,12,05,11,24,6.40
2012,12,05,11,25,8.10
2012,12,05,11,26,4.80
2012,12,05,11,27,9.60
2012,12,05,11,28,8.10
2012,12,05,11,29,3.20
2012,12,05,11,30,3.20
2012,12,05,11,31,3.20
2012,12,05,11,32,4.80
2012,12,05,11,33,1.60
2012,12,05,11,34,4.80
2012,12,05,11,35,1.60
2012,12,05,11,36,4.80
2012,12,05,11,37,4.80
2012,12,05,11,38,6.40
2012,12,05,11,39,4.80
2012,12,05,11,40,6.40
2012,12,05,11,41,4.80
2012,12,05,11,42,4.80
2012,12,05,11,43,8.10
2012,12,05,11,44,3.20
2012,12,05,11,45,3.20
2012,12,05,11,46,4.80
2012,12,05,11,47,3.20
2012,12,05,11,48,1.60
2012,12,05,11,49,1.60
2012,12,05,11,50,6.40
2012,12,05,11,51,9.60
2012,12,05,11,52,11.30
2012,12,05,11,53,8.10
2012,12,05,11,54,8.10
2012,12,05,11,55,6.40
2012,12,05,11,56,8.10
2012,12,05,11,57,8.10
2012,12,05,11,58,6.40
2012,12,05,11,59,6.40
2012,12,05,12,00,1.60
2012,12,05,12,01,1.60
2012,12,05,12,02,3.20
2012,12,05,12,03,4.80
2012,12,05,12,04,4.80
2012,12,05,12,05,8.10
2012,12,05,12,06,6.40
2012,12,05,12,07,6.40
2012,12,05,12,08,3.20
2012,12,05,12,09,1.60
2012,12,05,12,10,1.60
2012,12,05,12,11,8.10
2012,12,05,12,12,9.60
2012,12,05,12,13,11.30
2012,12,05,12,14,8.10
2012,12,05,12,15,9.60
2012,12,05,12,16,11.30
2012,12,05,12,17,14.50
2012,12,05,12,18,14.50
2012,12,05,12,19,9.60
2012,12,05,12,20,11.30
2012,12,05,12,21,11.30
2012,12,05,12,22,9.60
2012,12,05,12,23,8.10
2012,12,05,12,24,9.60
2012,12,05,12,25,11.30
2012,12,05,12,26,11.30
2012,12,05,12,27,11.30
2012,12,05,12,28,12.90
2012,12,05,12,29,12.90
2012,12,05,12,30,12.90
2012,12,05,12,31,11.30
2012,12,05,12,32,11.30
2012,12,05,12,33,11.30
2012,12,05,12,34,16.10
2012,12,05,12,35,11.30
2012,12,05,12,36,8.10
2012,12,05,12,37,11.30
2012,12,05,12,38,9.60
2012,12,05,12,39,16.10
2012,12,05,12,40,8.10
2012,12,05,12,41,16.10
2012,12,05,12,42,11.30
2012,12,05,12,43,16.10
2012,12,05,12,44,16.10
2012,12,05,12,45,9.60
2012,12,05,12,46,16.10
2012,12,05,12,47,17.70
2012,12,05,12,48,14.50
2012,12,05,12,49,14.50
2012,12,05,12,50,12.90
2012,12,05,12,51,17.70
2012,12,05,12,52,17.70
2012,12,05,12,53,24.20
2012,12,05,12,54,19.30
2012,12,05,12,55,17.70
2012,12,05,12,56,16.10
2012,12,05,12,57,16.10
2012,12,05,12,58,16.10
2012,12,05,12,59,14.50
2012,12,05,13,00,17.70
2012,12,05,13,01,16.10
2012,12,05,13,02,16.10
2012,12,05,13,03,17.70
2012,12,05,13,04,19.30
2012,12,05,13,05,22.50
2012,12,05,13,06,19.30
2012,12,05,13,07,16.10
2012,12,05,13,08,11.30
2012,12,05,13,09,20.90
2012,12,05,13,10,17.70
2012,12,05,13,11,17.70
2012,12,05,13,12,16.10
2012,12,05,13,13,19.30
2012,12,05,13,14,14.50
2012,12,05,13,15,17.70
2012,12,05,13,16,16.10
2012,12,05,13,17,14.50
2012,12,05,13,18,20.90
2012,12,05,13,19,16.10
2012,12,05,13,20,17.70
2012,12,05,13,21,16.10
2012,12,05,13,22,14.50
2012,12,05,13,23,14.50
2012,12,05,13,24,17.70
2012,12,05,13,25,16.10
2012,12,05,13,26,9.60
2012,12,05,13,27,16.10
2012,12,05,13,28,16.10
2012,12,05,13,29,17.70
2012,12,05,13,30,14.50
2012,12,05,13,31,16.10
2012,12,05,13,32,14.50
2012,12,05,13,33,17.70
2012,12,05,13,34,11.30
2012,12,05,13,35,16.10
2012,12,05,13,36,19.30
2012,12,05,13,37,12.90
2012,12,05,13,38,17.70
2012,12,05,13,39,16.10
2012,12,05,13,40,16.10
2012,12,05,13,41,17.70
2012,12,05,13,42,14.50
2012,12,05,13,43,6.40
2012,12,05,13,44,8.10
2012,12,05,13,45,8.10
2012,12,05,13,46,8.10
2012,12,05,13,47,9.60
2012,12,05,13,48,11.30
2012,12,05,13,49,11.30
2012,12,05,13,50,11.30
2012,12,05,13,51,11.30
2012,12,05,13,52,8.10
2012,12,05,13,53,8.10
2012,12,05,13,54,4.80
2012,12,05,13,55,6.40
2012,12,05,13,56,3.20
2012,12,05,13,57,1.60
2012,12,05,13,59,4.80
2012,12,05,14,00,6.40
2012,12,05,14,01,4.80
2012,12,05,14,02,6.40
2012,12,05,14,03,6.40
2012,12,05,14,04,4.80
2012,12,05,14,05,6.40
2012,12,05,14,06,9.60
2012,12,05,14,07,8.10
2012,12,05,14,08,9.60
2012,12,05,14,09,9.60
2012,12,05,14,10,6.40
2012,12,05,14,11,8.10
2012,12,05,14,12,6.40
2012,12,05,14,13,8.10
2012,12,05,14,14,6.40
2012,12,05,14,15,3.20
2012,12,05,14,16,3.20
2012,12,05,14,17,3.20
2012,12,05,14,18,3.20
2012,12,05,14,19,4.80
2012,12,05,14,20,3.20
2012,12,05,14,21,3.20
2012,12,05,14,22,4.80
2012,12,05,14,23,4.80
2012,12,05,14,24,3.20
2012,12,05,14,25,3.20
2012,12,05,14,26,6.40
2012,12,05,14,27,3.20
2012,12,05,14,28,3.20
2012,12,05,14,29,3.20
2012,12,05,14,30,3.20
2012,12,05,14,31,3.20
2012,12,05,14,32,3.20
2012,12,05,14,33,3.20
2012,12,05,14,34,3.20
2012,12,05,14,35,3.20
2012,12,05,14,36,3.20
2012,12,05,14,37,8.10
2012,12,05,14,38,8.10
2012,12,05,14,39,6.40
2012,12,05,14,40,3.20
2012,12,05,14,41,6.40
2012,12,05,14,42,4.80
2012,12,05,14,43,6.40
2012,12,05,14,44,6.40
2012,12,05,14,45,4.80
2012,12,05,14,46,8.10
2012,12,05,14,47,11.30
2012,12,05,14,48,8.10
2012,12,05,14,49,6.40
2012,12,05,14,50,8.10
2012,12,05,14,51,9.60
2012,12,05,14,52,8.10
2012,12,05,14,53,8.10
2012,12,05,14,54,6.40
2012,12,05,14,55,8.10
2012,12,05,14,56,6.40
2012,12,05,14,57,6.40
2012,12,05,14,58,6.40
2012,12,05,14,59,8.10
2012,12,05,15,00,9.60
2012,12,05,15,01,9.60
2012,12,05,15,02,8.10
2012,12,05,15,03,6.40
2012,12,05,15,04,4.80
2012,12,05,15,05,6.40
2012,12,05,15,06,8.10
2012,12,05,15,07,6.40
2012,12,05,15,08,9.60
2012,12,05,15,09,4.80
2012,12,05,15,10,6.40
2012,12,05,15,11,6.40
2012,12,05,15,12,6.40
2012,12,05,15,13,9.60
2012,12,05,15,14,8.10
2012,12,05,15,15,9.60
2012,12,05,15,16,8.10
2012,12,05,15,17,8.10
2012,12,05,15,18,6.40
2012,12,05,15,19,6.40
2012,12,05,15,20,6.40
2012,12,05,15,21,8.10
2012,12,05,15,22,8.10
2012,12,05,15,23,6.40
2012,12,05,15,24,6.40
2012,12,05,15,25,4.80
2012,12,05,15,26,4.80
2012,12,05,15,27,4.80
2012,12,05,15,28,3.20
2012,12,05,15,29,3.20
2012,12,05,15,30,4.80
2012,12,05,15,31,3.20
2012,12,05,15,32,3.20
2012,12,05,15,33,4.80
2012,12,05,15,34,3.20
2012,12,05,15,35,6.40
2012,12,05,15,36,6.40
2012,12,05,15,37,8.10
2012,12,05,15,38,3.20
2012,12,05,15,39,3.20
2012,12,05,15,40,3.20
2012,12,05,15,41,3.20
2012,12,05,15,42,1.60
2012,12,05,15,43,1.60
2012,12,05,15,44,3.20
2012,12,05,15,45,3.20
2012,12,05,15,46,1.60
2012,12,05,15,48,1.60
2012,12,05,15,51,1.60
2012,12,05,15,56,3.20
2012,12,05,15,57,1.60
2012,12,05,17,03,1.60
2012,12,05,17,04,1.60
2012,12,05,17,05,3.20
2012,12,05,17,06,4.80
2012,12,05,17,07,4.80
2012,12,05,17,08,3.20
2012,12,05,17,09,3.20
2012,12,05,17,10,1.60
2012,12,05,17,11,1.60
2012,12,05,17,13,1.60
2012,12,05,17,14,1.60
2012,12,05,17,15,1.60
2012,12,05,17,16,8.10
2012,12,05,17,17,6.40
2012,12,05,17,18,6.40
2012,12,05,17,19,4.80
2012,12,05,17,20,6.40
2012,12,05,17,21,4.80
2012,12,05,17,22,4.80
2012,12,05,17,23,4.80
2012,12,05,17,24,4.80
2012,12,05,17,25,4.80
2012,12,05,17,26,4.80
2012,12,05,17,27,4.80
2012,12,05,17,28,3.20
2012,12,05,17,29,4.80
2012,12,05,17,30,4.80
2012,12,05,17,31,1.60
2012,12,05,17,32,1.60
2012,12,05,17,33,3.20
2012,12,05,17,34,1.60
2012,12,05,17,35,3.20
2012,12,05,17,37,1.60
2012,12,05,17,38,4.80
2012,12,05,17,39,3.20
2012,12,05,17,40,3.20
2012,12,05,17,41,3.20
2012,12,05,17,42,3.20
2012,12,05,17,43,3.20
2012,12,05,17,44,3.20
2012,12,05,17,45,6.40
2012,12,05,17,46,1.60
2012,12,05,17,47,4.80
2012,12,05,17,48,6.40
2012,12,05,17,49,6.40
2012,12,05,17,50,8.10
2012,12,05,17,51,4.80
2012,12,05,17,52,6.40
2012,12,05,17,53,14.50
2012,12,05,17,54,6.40
2012,12,05,17,55,4.80
2012,12,05,17,56,4.80
2012,12,05,17,57,3.20
2012,12,05,17,58,9.60
2012,12,05,17,59,1.60
2012,12,05,18,00,3.20
2012,12,05,18,01,3.20
2012,12,05,18,02,3.20
2012,12,05,18,03,4.80
2012,12,05,18,06,3.20
2012,12,05,18,07,1.60
2012,12,05,18,09,4.80
2012,12,05,18,10,4.80
2012,12,05,18,11,1.60
2012,12,05,18,12,1.60
2012,12,05,18,13,4.80
2012,12,05,18,14,1.60
2012,12,05,18,15,1.60
2012,12,05,18,16,3.20
2012,12,05,18,17,3.20
2012,12,05,18,18,1.60
2012,12,05,18,21,1.60
2012,12,05,18,27,1.60
2012,12,05,18,28,3.20
2012,12,05,18,29,1.60
2012,12,05,18,30,1.60
2012,12,05,18,31,6.40
2012,12,05,18,32,4.80
2012,12,05,18,33,4.80
2012,12,05,18,34,4.80
2012,12,05,18,35,4.80
2012,12,05,18,36,4.80
2012,12,05,18,37,4.80
2012,12,05,18,38,4.80
2012,12,05,18,39,4.80
2012,12,05,18,40,6.40
2012,12,05,18,41,4.80
2012,12,05,18,42,4.80
2012,12,05,18,43,4.80
2012,12,05,18,44,4.80
2012,12,05,18,45,6.40
2012,12,05,18,46,4.80
2012,12,05,18,47,4.80
2012,12,05,18,48,8.10
2012,12,05,18,49,8.10
2012,12,05,18,50,9.60
2012,12,05,18,51,6.40
2012,12,05,18,52,8.10
2012,12,05,18,53,4.80
2012,12,05,18,54,9.60
2012,12,05,18,55,6.40
2012,12,05,18,56,8.10
2012,12,05,18,57,8.10
2012,12,05,18,58,6.40
2012,12,05,18,59,9.60
2012,12,05,19,00,9.60
2012,12,05,19,01,8.10
2012,12,05,19,02,6.40
2012,12,05,19,03,8.10
2012,12,05,19,04,4.80
2012,12,05,19,05,9.60
2012,12,05,19,06,9.60
2012,12,05,19,07,6.40
2012,12,05,19,08,8.10
2012,12,05,19,09,4.80
2012,12,05,19,10,6.40
2012,12,05,19,11,6.40
2012,12,05,19,12,4.80
2012,12,05,19,13,8.10